This is the latest recevied weather packets stored in our database for station/object KD0SBN-3. If no packets are shown the sender has not sent any weather packets the latest 1 day(s).
| Time | Temp. | Humidity | Pressure | Rain* | Wind** | Luminosity | Snow |
|---|---|---|---|---|---|---|---|
| 1778033234 | 0° C | 96% | 1017.9 hPa | 0 mm | - | 0 W/m² | - |
| 1778032629 | -0.56° C | 96% | 1018.2 hPa | 0 mm | - | 0 W/m² | - |
| 1778032024 | 0° C | 96% | 1017.9 hPa | 0 mm | - | 0 W/m² | - |
| 1778031720 | 0° C | 96% | 1017.8 hPa | 0 mm | - | 1 W/m² | - |
| 1778031418 | 0° C | 96% | 1017.8 hPa | 0 mm | - | 1 W/m² | - |
| 1778031115 | 0° C | 96% | 1017.7 hPa | 0 mm | - | 2 W/m² | - |
| 1778030811 | 0° C | 96% | 1017.5 hPa | 0 mm | - | 2 W/m² | - |
| 1778030508 | 0.56° C | 96% | 1017.5 hPa | 0 mm | - | 3 W/m² | - |
| 1778030205 | 1.67° C | 96% | 1017 hPa | 1.78 mm | - | 4 W/m² | - |
| 1778029600 | 1.67° C | 96% | 1017 hPa | 1.27 mm | - | 6 W/m² | - |
| 1778029297 | 1.11° C | 96% | 1016.8 hPa | 1.78 mm | - | 7 W/m² | - |
| 1778028994 | 1.67° C | 96% | 1016.9 hPa | 3.05 mm | - | 3 W/m² | - |
| 1778028387 | 3.33° C | 96% | 1016.5 hPa | 1.78 mm | - | 4 W/m² | - |
| 1778027780 | 3.33° C | 96% | 1016.2 hPa | 0 mm | - | 14 W/m² | - |
| 1778025960 | 3.89° C | 96% | 1016.4 hPa | 0 mm | - | 17 W/m² | - |
| 1778025657 | 3.89° C | 96% | 1016.4 hPa | 0 mm | - | 17 W/m² | - |
| 1778025355 | 3.33° C | 96% | 1016.1 hPa | 0 mm | - | 28 W/m² | - |
| 1778024445 | 3.33° C | 96% | 1016.4 hPa | 0 mm | - | 33 W/m² | - |
| 1778024143 | 3.33° C | 96% | 1016.2 hPa | 0 mm | - | 30 W/m² | - |
| 1778023538 | 3.89° C | 96% | 1016.5 hPa | 0 mm | - | 49 W/m² | - |
| 1778022024 | 3.33° C | 96% | 1016.8 hPa | 0 mm | - | 36 W/m² | - |
| 1778021721 | 2.78° C | 96% | 1016.9 hPa | 0 mm | - | 36 W/m² | - |
| 1778021114 | 3.33° C | 95% | 1017 hPa | 0 mm | - | 51 W/m² | - |
| 1778019901 | 3.33° C | 95% | 1017.3 hPa | 0 mm | - | 37 W/m² | - |
| 1778018991 | 3.33° C | 95% | 1017.3 hPa | 0 mm | - | 29 W/m² | - |
* Rain latest hour (hover to see other rain measurements)
** Current wind speed in m/s (hover to see current wind gust speed)